| time (UTC) | temp F | wind direction | speed MPH | gust MPH | rain 1hr in | rain 24hr in | rain mn in | humidity % | barometer mb |
| 20260503055009 | 48 | 149 | 0.0 | 0.0 | 0.00 | 0.00 | 0.00 | 49 | 1011.4 |
| 20260503054505 | 49 | 200 | 0.0 | 0.0 | 0.00 | 0.00 | 0.00 | 48 | 1011.5 |
| 20260503054003 | 49 | 193 | 1.0 | 2.0 | 0.00 | 0.00 | 0.00 | 49 | 1011.3 |
| 20260503053500 | 49 | 202 | 1.0 | 1.0 | 0.00 | 0.00 | 0.00 | 48 | 1011.4 |
| 20260503052957 | 49 | 179 | 1.0 | 1.0 | 0.00 | 0.00 | 0.00 | 48 | 1011.4 |
| 20260503052454 | 50 | 129 | 1.0 | 2.0 | 0.00 | 0.00 | 0.00 | 48 | 1011.3 |
| 20260503051950 | 50 | 224 | 1.0 | 1.0 | 0.00 | 0.00 | 0.00 | 47 | 1011.2 |
| 20260503051446 | 49 | 4 | 1.0 | 2.0 | 0.00 | 0.00 | 0.00 | 47 | 1011.5 |
| 20260503050944 | 50 | 101 | 0.0 | 0.0 | 0.00 | 0.00 | 0.00 | 47 | 1011.5 |
| 20260503050439 | 50 | 149 | 2.0 | 3.0 | 0.00 | 0.00 | 0.00 | 46 | 1011.6 |
| 20260503045937 | 50 | 187 | 3.0 | 4.0 | 0.00 | 0.00 | 0.00 | 46 | 1011.4 |
| 20260503045435 | 50 | 226 | 2.0 | 2.0 | 0.00 | 0.00 | 0.00 | 46 | 1011.5 |
| 20260503044931 | 50 | 193 | 0.0 | 1.0 | 0.00 | 0.00 | 0.00 | 46 | 1011.6 |
| 20260503044428 | 50 | 167 | 2.0 | 3.0 | 0.00 | 0.00 | 0.00 | 45 | 1011.6 |
| 20260503043926 | 50 | 134 | 2.0 | 2.0 | 0.00 | 0.00 | 0.00 | 45 | 1011.7 |
| 20260503043422 | 50 | 161 | 1.0 | 2.0 | 0.00 | 0.00 | 0.00 | 44 | 1011.7 |
| 20260503042918 | 50 | 168 | 3.0 | 4.0 | 0.00 | 0.00 | 0.00 | 44 | 1011.8 |
| 20260503042415 | 50 | 170 | 0.0 | 0.0 | 0.00 | 0.00 | 0.00 | 44 | 1011.8 |
| 20260503041912 | 50 | 173 | 1.0 | 2.0 | 0.00 | 0.00 | 0.00 | 44 | 1011.9 |
| 20260503041409 | 50 | 140 | 0.0 | 1.0 | 0.00 | 0.00 | 0.00 | 44 | 1012.0 |
| 20260503040906 | 50 | 159 | 0.0 | 0.0 | 0.00 | 0.00 | 0.00 | 44 | 1012.0 |
| 20260503040404 | 49 | 141 | 3.0 | 3.0 | 0.00 | 0.00 | 0.00 | 43 | 1012.1 |
| 20260503035900 | 50 | 121 | 0.0 | 0.0 | 0.00 | 0.00 | 0.00 | 45 | 1012.1 |
| 20260503035357 | 50 | 162 | 3.0 | 3.0 | 0.00 | 0.00 | 0.00 | 43 | 1012.0 |
| 20260503034854 | 50 | 221 | 1.0 | 1.0 | 0.00 | 0.00 | 0.00 | 43 | 1012.1 |
| 20260503034352 | 50 | 140 | 1.0 | 1.0 | 0.00 | 0.00 | 0.00 | 43 | 1012.3 |
| 20260503033849 | 50 | 153 | 0.0 | 1.0 | 0.00 | 0.00 | 0.00 | 43 | 1012.5 |
| 20260503033346 | 50 | 164 | 2.0 | 3.0 | 0.00 | 0.00 | 0.00 | 42 | 1012.4 |
| 20260503032844 | 50 | 191 | 1.0 | 1.0 | 0.00 | 0.00 | 0.00 | 43 | 1012.4 |
| 20260503032343 | 50 | 146 | 3.0 | 3.0 | 0.00 | 0.00 | 0.00 | 43 | 1012.5 |
| 20260503031840 | 50 | 142 | 0.0 | 1.0 | 0.00 | 0.00 | 0.00 | 43 | 1012.5 |
| 20260503031338 | 51 | 168 | 0.0 | 0.0 | 0.00 | 0.00 | 0.00 | 42 | 1012.5 |
| 20260503030834 | 50 | 128 | 1.0 | 1.0 | 0.00 | 0.00 | 0.00 | 42 | 1012.5 |
| 20260503030330 | 51 | 159 | 2.0 | 2.0 | 0.00 | 0.00 | 0.00 | 41 | 1012.8 |
| 20260503025827 | 51 | 147 | 0.0 | 0.0 | 0.00 | 0.00 | 0.00 | 41 | 1012.8 |
| 20260503025325 | 51 | 160 | 0.0 | 0.0 | 0.00 | 0.00 | 0.00 | 41 | 1012.9 |
| 20260503024821 | 51 | 208 | 1.0 | 2.0 | 0.00 | 0.00 | 0.00 | 41 | 1012.7 |
| 20260503024318 | 51 | 151 | 1.0 | 1.0 | 0.00 | 0.00 | 0.00 | 42 | 1012.8 |
| 20260503023815 | 51 | 142 | 1.0 | 1.0 | 0.00 | 0.00 | 0.00 | 41 | 1012.7 |
| 20260503023312 | 51 | 168 | 1.0 | 2.0 | 0.00 | 0.00 | 0.00 | 40 | 1012.4 |
| 20260503022808 | 51 | 130 | 1.0 | 1.0 | 0.00 | 0.00 | 0.00 | 40 | 1012.8 |
| 20260503022304 | 51 | 151 | 0.0 | 1.0 | 0.00 | 0.00 | 0.00 | 40 | 1012.7 |
| 20260503021800 | 51 | 141 | 0.0 | 1.0 | 0.00 | 0.00 | 0.00 | 41 | 1012.8 |
| 20260503021256 | 52 | 169 | 1.0 | 1.0 | 0.00 | 0.00 | 0.00 | 40 | 1012.8 |
| 20260503020754 | 52 | 172 | 0.0 | 1.0 | 0.00 | 0.00 | 0.00 | 40 | 1012.8 |
| 20260503020251 | 52 | 177 | 0.0 | 1.0 | 0.00 | 0.00 | 0.00 | 40 | 1012.8 |
| 20260503015747 | 52 | 162 | 1.0 | 1.0 | 0.00 | 0.00 | 0.00 | 39 | 1012.7 |
| 20260503015244 | 52 | 139 | 1.0 | 1.0 | 0.00 | 0.00 | 0.00 | 39 | 1012.4 |
| 20260503014739 | 52 | 159 | 0.0 | 1.0 | 0.00 | 0.00 | 0.00 | 40 | 1012.5 |
| 20260503014238 | 52 | 182 | 0.0 | 0.0 | 0.00 | 0.00 | 0.00 | 40 | 1012.5 |
| 20260503013735 | 52 | 196 | 0.0 | 0.0 | 0.00 | 0.00 | 0.00 | 39 | 1012.7 |
| 20260503013232 | 53 | 184 | 0.0 | 0.0 | 0.00 | 0.00 | 0.00 | 39 | 1012.4 |
| 20260503012730 | 53 | 184 | 0.0 | 1.0 | 0.00 | 0.00 | 0.00 | 38 | 1012.3 |
| 20260503012226 | 53 | 181 | 1.0 | 1.0 | 0.00 | 0.00 | 0.00 | 38 | 1012.3 |
| 20260503011723 | 53 | 201 | 0.0 | 1.0 | 0.00 | 0.00 | 0.00 | 39 | 1012.5 |
| 20260503011220 | 53 | 173 | 0.0 | 0.0 | 0.00 | 0.00 | 0.00 | 39 | 1012.8 |
| 20260503010716 | 53 | 193 | 0.0 | 0.0 | 0.00 | 0.00 | 0.00 | 39 | 1012.7 |
| 20260503010213 | 54 | 181 | 0.0 | 0.0 | 0.00 | 0.00 | 0.00 | 37 | 1012.5 |
| 20260503005711 | 55 | 175 | 0.0 | 0.0 | 0.00 | 0.00 | 0.00 | 37 | 1012.3 |
| 20260503005208 | 55 | 203 | 0.0 | 1.0 | 0.00 | 0.00 | 0.00 | 37 | 1012.8 |
| 20260503004704 | 55 | 186 | 0.0 | 1.0 | 0.00 | 0.00 | 0.00 | 37 | 1012.4 |
| 20260503004202 | 55 | 183 | 0.0 | 0.0 | 0.00 | 0.00 | 0.00 | 38 | 1012.3 |
| 20260503003659 | 55 | 231 | 1.0 | 1.0 | 0.00 | 0.00 | 0.00 | 36 | 1012.5 |
| 20260503003156 | 56 | 189 | 0.0 | 0.0 | 0.00 | 0.00 | 0.00 | 36 | 1012.4 |
| 20260503002653 | 56 | 170 | 1.0 | 1.0 | 0.00 | 0.00 | 0.00 | 37 | 1012.5 |
| 20260503002150 | 56 | 170 | 0.0 | 0.0 | 0.00 | 0.00 | 0.00 | 37 | 1012.5 |
| 20260503001646 | 57 | 8 | 1.0 | 1.0 | 0.00 | 0.00 | 0.00 | 35 | 1012.7 |
| 20260503001143 | 57 | 164 | 2.0 | 3.0 | 0.00 | 0.00 | 0.00 | 35 | 1012.5 |
| 20260503000641 | 57 | 229 | 0.0 | 1.0 | 0.00 | 0.00 | 0.00 | 38 | 1012.7 |
| 20260503000137 | 57 | 253 | 1.0 | 1.0 | 0.00 | 0.00 | 0.00 | 36 | 1012.4 |
| 20260502235634 | 58 | 181 | 0.0 | 0.0 | 0.00 | 0.00 | 0.00 | 35 | 1012.8 |
| 20260502235132 | 58 | 271 | 1.0 | 2.0 | 0.00 | 0.00 | 0.00 | 34 | 1012.9 |
| 20260502234628 | 58 | 160 | 1.0 | 1.0 | 0.00 | 0.00 | 0.00 | 36 | 1012.8 |
| 20260502234126 | 58 | 271 | 1.0 | 2.0 | 0.00 | 0.00 | 0.00 | 33 | 1012.9 |
| 20260502233621 | 58 | 207 | 1.0 | 1.0 | 0.00 | 0.00 | 0.00 | 34 | 1013.0 |
| 20260502233118 | 58 | 321 | 4.0 | 7.0 | 0.00 | 0.00 | 0.00 | 33 | 1013.1 |
| 20260502232614 | 58 | 340 | 4.0 | 7.0 | 0.00 | 0.00 | 0.00 | 32 | 1013.1 |
| 20260502232112 | 58 | 243 | 4.0 | 4.0 | 0.00 | 0.00 | 0.00 | 33 | 1013.2 |
| 20260502231608 | 58 | 165 | 1.0 | 1.0 | 0.00 | 0.00 | 0.00 | 35 | 1013.2 |
| 20260502231106 | 59 | 226 | 3.0 | 4.0 | 0.00 | 0.00 | 0.00 | 32 | 1013.1 |
| 20260502230604 | 59 | 237 | 2.0 | 2.0 | 0.00 | 0.00 | 0.00 | 31 | 1013.2 |
| 20260502225557 | 59 | 75 | 2.0 | 3.0 | 0.00 | 0.00 | 0.00 | 33 | 1013.1 |
| 20260502225055 | 59 | 126 | 0.0 | 0.0 | 0.00 | 0.00 | 0.00 | 32 | 1013.3 |
| 20260502224551 | 60 | 181 | 0.0 | 0.0 | 0.00 | 0.00 | 0.00 | 31 | 1013.2 |
| 20260502224048 | 60 | 48 | 1.0 | 1.0 | 0.00 | 0.00 | 0.00 | 32 | 1013.3 |
| 20260502223546 | 60 | 179 | 1.0 | 2.0 | 0.00 | 0.00 | 0.00 | 31 | 1013.4 |
| 20260502223044 | 60 | 333 | 3.0 | 3.0 | 0.00 | 0.00 | 0.00 | 32 | 1013.4 |
| 20260502222541 | 60 | 74 | 2.0 | 3.0 | 0.00 | 0.00 | 0.00 | 32 | 1013.3 |
| 20260502222037 | 60 | 108 | 1.0 | 1.0 | 0.00 | 0.00 | 0.00 | 32 | 1013.4 |
| 20260502221533 | 60 | 154 | 3.0 | 3.0 | 0.00 | 0.00 | 0.00 | 32 | 1013.8 |
| 20260502221031 | 61 | 317 | 2.0 | 2.0 | 0.00 | 0.00 | 0.00 | 34 | 1013.6 |
| 20260502220526 | 60 | 228 | 2.0 | 2.0 | 0.00 | 0.00 | 0.00 | 31 | 1013.6 |
| 20260502220023 | 60 | 72 | 1.0 | 1.0 | 0.00 | 0.00 | 0.00 | 31 | 1013.8 |
| 20260502215520 | 60 | 255 | 3.0 | 4.0 | 0.00 | 0.00 | 0.00 | 31 | 1013.7 |
| 20260502215017 | 60 | 270 | 2.0 | 2.0 | 0.00 | 0.00 | 0.00 | 30 | 1013.7 |
| 20260502214514 | 60 | 277 | 2.0 | 3.0 | 0.00 | 0.00 | 0.00 | 30 | 1013.7 |
| 20260502214012 | 59 | 157 | 1.0 | 2.0 | 0.00 | 0.00 | 0.00 | 31 | 1013.7 |
| 20260502213508 | 61 | 252 | 3.0 | 4.0 | 0.00 | 0.00 | 0.00 | 29 | 1013.8 |
| 20260502213006 | 62 | 267 | 4.0 | 6.0 | 0.00 | 0.00 | 0.00 | 30 | 1013.9 |
| 20260502212505 | 61 | 47 | 1.0 | 2.0 | 0.00 | 0.00 | 0.00 | 31 | 1013.8 |
| 20260502212001 | 62 | 349 | 4.0 | 6.0 | 0.00 | 0.00 | 0.00 | 31 | 1014.1 |
| 20260502211457 | 62 | 162 | 2.0 | 3.0 | 0.00 | 0.00 | 0.00 | 30 | 1014.1 |
| 20260502210955 | 64 | 144 | 1.0 | 2.0 | 0.00 | 0.00 | 0.00 | 34 | 1014.0 |
| 20260502210451 | 63 | 111 | 1.0 | 1.0 | 0.00 | 0.00 | 0.00 | 28 | 1014.1 |
| 20260502205949 | 60 | 209 | 1.0 | 1.0 | 0.00 | 0.00 | 0.00 | 30 | 1014.2 |
| 20260502205444 | 60 | 145 | 5.0 | 7.0 | 0.00 | 0.00 | 0.00 | 30 | 1014.4 |
| 20260502204942 | 62 | 160 | 1.0 | 2.0 | 0.00 | 0.00 | 0.00 | 31 | 1014.3 |
| 20260502204439 | 61 | 227 | 0.0 | 0.0 | 0.00 | 0.00 | 0.00 | 30 | 1014.2 |
| 20260502203937 | 60 | 89 | 2.0 | 3.0 | 0.00 | 0.00 | 0.00 | 32 | 1014.5 |
| 20260502203434 | 59 | 204 | 1.0 | 1.0 | 0.00 | 0.00 | 0.00 | 33 | 1014.5 |
| 20260502202930 | 58 | 129 | 1.0 | 1.0 | 0.00 | 0.00 | 0.00 | 31 | 1014.6 |
| 20260502202427 | 59 | 154 | 5.0 | 6.0 | 0.00 | 0.00 | 0.00 | 32 | 1014.6 |
| 20260502201925 | 59 | 255 | 5.0 | 8.0 | 0.00 | 0.00 | 0.00 | 30 | 1014.7 |
| 20260502201421 | 60 | 276 | 7.0 | 8.0 | 0.00 | 0.00 | 0.00 | 29 | 1014.9 |
| 20260502200918 | 62 | 233 | 1.0 | 2.0 | 0.00 | 0.00 | 0.00 | 30 | 1014.6 |
| 20260502200413 | 61 | 10 | 4.0 | 4.0 | 0.00 | 0.00 | 0.00 | 29 | 1014.8 |
| 20260502195911 | 59 | 280 | 0.0 | 1.0 | 0.00 | 0.00 | 0.00 | 29 | 1014.9 |
| 20260502195408 | 59 | 279 | 5.0 | 7.0 | 0.00 | 0.00 | 0.00 | 30 | 1015.1 |
| 20260502194905 | 59 | 298 | 4.0 | 7.0 | 0.00 | 0.00 | 0.00 | 30 | 1015.0 |
| 20260502194401 | 58 | 358 | 2.0 | 4.0 | 0.00 | 0.00 | 0.00 | 32 | 1015.1 |
| 20260502193857 | 61 | 286 | 2.0 | 3.0 | 0.00 | 0.00 | 0.00 | 30 | 1015.3 |
| 20260502193355 | 58 | 59 | 1.0 | 2.0 | 0.00 | 0.00 | 0.00 | 32 | 1015.5 |
| 20260502192850 | 59 | 338 | 4.0 | 4.0 | 0.00 | 0.00 | 0.00 | 32 | 1015.3 |
| 20260502192347 | 60 | 312 | 2.0 | 2.0 | 0.00 | 0.00 | 0.00 | 30 | 1015.4 |
| 20260502191844 | 59 | 128 | 1.0 | 1.0 | 0.00 | 0.00 | 0.00 | 33 | 1015.6 |
| 20260502191342 | 61 | 268 | 5.0 | 7.0 | 0.00 | 0.00 | 0.00 | 28 | 1015.5 |
| 20260502190839 | 59 | 223 | 8.0 | 10.0 | 0.00 | 0.00 | 0.00 | 29 | 1015.6 |
| 20260502190337 | 59 | 31 | 2.0 | 3.0 | 0.00 | 0.00 | 0.00 | 31 | 1015.5 |
| 20260502185832 | 59 | 245 | 1.0 | 2.0 | 0.00 | 0.00 | 0.00 | 33 | 1015.8 |
| 20260502185328 | 60 | 214 | 1.0 | 1.0 | 0.00 | 0.00 | 0.00 | 32 | 1015.6 |
| 20260502184825 | 60 | 208 | 0.0 | 1.0 | 0.00 | 0.00 | 0.00 | 32 | 1016.0 |
| 20260502184321 | 59 | 231 | 1.0 | 2.0 | 0.00 | 0.00 | 0.00 | 32 | 1015.9 |
| 20260502183817 | 59 | 257 | 4.0 | 7.0 | 0.00 | 0.00 | 0.00 | 31 | 1015.9 |
| 20260502183314 | 57 | 111 | 2.0 | 3.0 | 0.00 | 0.00 | 0.00 | 31 | 1015.9 |
| 20260502182809 | 58 | 228 | 3.0 | 4.0 | 0.00 | 0.00 | 0.00 | 32 | 1016.3 |
| 20260502182305 | 57 | 247 | 3.0 | 4.0 | 0.00 | 0.00 | 0.00 | 33 | 1016.4 |
| 20260502181802 | 55 | 164 | 6.0 | 8.0 | 0.00 | 0.00 | 0.00 | 35 | 1016.3 |
| 20260502181301 | 56 | 96 | 2.0 | 3.0 | 0.00 | 0.00 | 0.00 | 35 | 1016.4 |
| 20260502180758 | 56 | 40 | 1.0 | 1.0 | 0.00 | 0.00 | 0.00 | 36 | 1016.3 |
| 20260502180255 | 58 | 191 | 1.0 | 2.0 | 0.00 | 0.00 | 0.00 | 34 | 1016.4 |
| 20260502170213 | 55 | 228 | 1.0 | 2.0 | 0.00 | 0.00 | 0.00 | 39 | 1016.9 |
| 20260502164200 | 57 | 192 | 1.0 | 2.0 | 0.00 | 0.00 | 0.00 | 40 | 1017.4 |
| 20260502163655 | 56 | 287 | 4.0 | 6.0 | 0.00 | 0.00 | 0.00 | 38 | 1017.1 |
| 20260502163153 | 55 | 242 | 5.0 | 6.0 | 0.00 | 0.00 | 0.00 | 41 | 1017.3 |
| 20260502162649 | 55 | 180 | 0.0 | 1.0 | 0.00 | 0.00 | 0.00 | 39 | 1017.3 |
| 20260502162146 | 56 | 16 | 2.0 | 2.0 | 0.00 | 0.00 | 0.00 | 39 | 1017.4 |
| 20260502161644 | 55 | 289 | 1.0 | 2.0 | 0.00 | 0.00 | 0.00 | 43 | 1017.3 |
| 20260502161140 | 56 | 225 | 2.0 | 3.0 | 0.00 | 0.00 | 0.00 | 43 | 1017.3 |
| 20260502160638 | 56 | 241 | 4.0 | 4.0 | 0.00 | 0.00 | 0.00 | 41 | 1017.7 |
| 20260502160137 | 55 | 299 | 2.0 | 3.0 | 0.00 | 0.00 | 0.00 | 42 | 1017.7 |
| 20260502152051 | 54 | 160 | 0.0 | 0.0 | 0.00 | 0.00 | 0.00 | 49 | 1018.2 |
| 20260502151548 | 53 | 326 | 3.0 | 3.0 | 0.00 | 0.00 | 0.00 | 45 | 1017.7 |
| 20260502151045 | 51 | 101 | 2.0 | 3.0 | 0.00 | 0.00 | 0.00 | 51 | 1017.8 |
| 20260502150543 | 50 | 270 | 3.0 | 4.0 | 0.00 | 0.00 | 0.00 | 53 | 1018.1 |
| 20260502130416 | 41 | 206 | 1.0 | 2.0 | 0.00 | 0.00 | 0.00 | 73 | 1018.9 |
| 20260502123358 | 40 | 207 | 1.0 | 1.0 | 0.00 | 0.00 | 0.00 | 77 | 1018.6 |
| 20260502122850 | 40 | 138 | 0.0 | 1.0 | 0.00 | 0.00 | 0.00 | 77 | 1018.6 |
| 20260502122346 | 40 | 134 | 0.0 | 0.0 | 0.00 | 0.00 | 0.00 | 79 | 1018.4 |
| 20260502121845 | 39 | 157 | 0.0 | 1.0 | 0.00 | 0.00 | 0.00 | 80 | 1018.3 |
| 20260502121342 | 39 | 33 | 1.0 | 2.0 | 0.00 | 0.00 | 0.00 | 79 | 1018.6 |
| 20260502120839 | 39 | 176 | 1.0 | 1.0 | 0.00 | 0.00 | 0.00 | 81 | 1018.5 |
| 20260502120335 | 38 | 264 | 1.0 | 1.0 | 0.00 | 0.00 | 0.00 | 83 | 1018.3 |
| 20260502115833 | 36 | 122 | 0.0 | 0.0 | 0.00 | 0.00 | 0.00 | 86 | 1018.6 |
| 20260502115330 | 34 | 162 | 0.0 | 0.0 | 0.00 | 0.00 | 0.00 | 90 | 1018.4 |
| 20260502114826 | 33 | 171 | 0.0 | 0.0 | 0.00 | 0.00 | 0.00 | 90 | 1018.3 |
| 20260502114323 | 33 | 171 | 0.0 | 0.0 | 0.00 | 0.00 | 0.00 | 90 | 1018.3 |
| 20260502113820 | 33 | 171 | 0.0 | 0.0 | 0.00 | 0.00 | 0.00 | 90 | 1018.2 |
| 20260502113317 | 33 | 157 | 0.0 | 0.0 | 0.00 | 0.00 | 0.00 | 90 | 1018.2 |
| 20260502112816 | 33 | 202 | 0.0 | 0.0 | 0.00 | 0.00 | 0.00 | 90 | 1018.3 |
| 20260502112312 | 33 | 204 | 0.0 | 0.0 | 0.00 | 0.00 | 0.00 | 90 | 1018.2 |
| 20260502111810 | 32 | 205 | 0.0 | 0.0 | 0.00 | 0.00 | 0.00 | 91 | 1018.0 |
| 20260502111307 | 32 | 205 | 0.0 | 0.0 | 0.00 | 0.00 | 0.00 | 92 | 1018.1 |
| 20260502110805 | 32 | 206 | 0.0 | 0.0 | 0.00 | 0.00 | 0.00 | 92 | 1018.1 |
| 20260502110303 | 31 | 207 | 0.0 | 0.0 | 0.00 | 0.00 | 0.00 | 93 | 1018.1 |
| 20260502105800 | 31 | 196 | 0.0 | 0.0 | 0.00 | 0.00 | 0.00 | 93 | 1018.0 |
| 20260502105256 | 30 | 182 | 0.0 | 0.0 | 0.00 | 0.00 | 0.00 | 92 | 1018.2 |
| 20260502104754 | 31 | 182 | 0.0 | 0.0 | 0.00 | 0.00 | 0.00 | 92 | 1018.1 |
| 20260502104251 | 32 | 189 | 0.0 | 0.0 | 0.00 | 0.00 | 0.00 | 91 | 1018.1 |
| 20260502103749 | 32 | 189 | 0.0 | 0.0 | 0.00 | 0.00 | 0.00 | 92 | 1017.9 |
| 20260502103246 | 31 | 188 | 0.0 | 0.0 | 0.00 | 0.00 | 0.00 | 93 | 1018.0 |
| 20260502102743 | 30 | 187 | 0.0 | 0.0 | 0.00 | 0.00 | 0.00 | 93 | 1017.9 |
| 20260502102239 | 30 | 187 | 0.0 | 0.0 | 0.00 | 0.00 | 0.00 | 91 | 1018.1 |
| 20260502101738 | 30 | 188 | 0.0 | 0.0 | 0.00 | 0.00 | 0.00 | 92 | 1017.9 |
| 20260502101236 | 32 | 190 | 0.0 | 0.0 | 0.00 | 0.00 | 0.00 | 90 | 1018.0 |
| 20260502100733 | 32 | 205 | 0.0 | 0.0 | 0.00 | 0.00 | 0.00 | 91 | 1018.1 |
| 20260502100232 | 32 | 205 | 0.0 | 0.0 | 0.00 | 0.00 | 0.00 | 91 | 1017.7 |
| 20260502091206 | 29 | 170 | 0.0 | 0.0 | 0.00 | 0.00 | 0.00 | 90 | 1017.9 |
| 20260502090703 | 30 | 170 | 0.0 | 0.0 | 0.00 | 0.00 | 0.00 | 90 | 1017.9 |
| 20260502090200 | 30 | 170 | 0.0 | 0.0 | 0.00 | 0.00 | 0.00 | 90 | 1017.7 |
| 20260502071055 | 36 | 287 | 2.0 | 2.0 | 0.00 | 0.00 | 0.00 | 73 | 1018.0 |
| 20260502070554 | 36 | 234 | 1.0 | 1.0 | 0.00 | 0.00 | 0.00 | 73 | 1018.0 |
| 20260502070051 | 36 | 194 | 0.0 | 0.0 | 0.00 | 0.00 | 0.00 | 73 | 1018.0 |
| 20260502065549 | 37 | 209 | 0.0 | 0.0 | 0.00 | 0.00 | 0.00 | 72 | 1017.9 |
| 20260502065046 | 37 | 182 | 0.0 | 0.0 | 0.00 | 0.00 | 0.00 | 73 | 1017.9 |
| 20260502064545 | 38 | 156 | 0.0 | 0.0 | 0.00 | 0.00 | 0.00 | 71 | 1018.1 |
| 20260502064041 | 37 | 178 | 0.0 | 1.0 | 0.00 | 0.00 | 0.00 | 71 | 1018.0 |
| 20260502063539 | 37 | 141 | 0.0 | 0.0 | 0.00 | 0.00 | 0.00 | 69 | 1017.9 |
| 20260502063037 | 37 | 191 | 0.0 | 1.0 | 0.00 | 0.00 | 0.00 | 67 | 1018.0 |
| 20260502062534 | 38 | 165 | 1.0 | 1.0 | 0.00 | 0.00 | 0.00 | 66 | 1018.0 |
| 20260502062032 | 38 | 183 | 1.0 | 1.0 | 0.00 | 0.00 | 0.00 | 64 | 1018.0 |
| 20260502061530 | 37 | 173 | 0.0 | 1.0 | 0.00 | 0.00 | 0.00 | 66 | 1018.2 |